Starlink 30941

operational
NORAD ID: 58475 Int'l Des: 2023-186 Owner: SPXS Country: US Constellation: starlink
LEOCIRCULAR

Über Starlink 30941

Beschreibung wird geladen...

Live-Position

3D-Globus wird geladen...

Nächste Überflüge

Höhenverlauf

Altitude vs Time

uPlot chart will show altitude changes over time

Zweizeiliger Elementsatz

1 58475U 23186C 25353.15055237 -.00000015 00000-0 13928-4 0 9999
2 58475 43.0030 145.3093 0001330 264.7819 95.2871 15.02535751113731
Epoch: 19. Dez. 2025 • Age: 17 hours

Aktueller Status

Höhe 558.6 km
Geschwindigkeit 7.59 km/s
Subsatellitenpunkt 16.48°N, 89.38°W
Startdatum 3. Dez. 2023
Alter 2 years
Typ internet

Technische Details

Klassifizierung Payload
Masse 730.00 kg
Trockenmasse 700.00 kg
Gesamtmasse 730.00 kg
Länge 0.30 m
Durchmesser 4.10 m
Spannweite 29.00 m
Form Box + pan
Hersteller SPXS
Bus-Typ Starlink V2M
Phasenstatus In Orbit
Besitzer/Staat SPXS/US

Große Konstellationen

Loading constellations...